Location: ????????
(56.0167°N, 38.0333°E)
Time: 03:14:45
(UTC+00:00)

Cosmos 1633 Rocket - Pass Details

Date: 19 May 2025
Orbit: 600 x 618 km, 82.5° (Epoch: 15 June)

Event Time Altitude Azimuth Distance (km) Brightness Sun altitude
Rises 21:14:18 0° 349° (N) 2,889 8.4 -14.0°
Reaches altitude 10° 21:16:34 10° 354° (N) 1,977 7.1 -14.0°
Maximum altitude 21:20:53 58° 74° (ENE) 713 3.4 -14.0°
Enters shadow 21:23:54 19° 149° (SSE) 1,467 4.5 -14.0°
